Location: Norton
(51.3000°N, 0.8167°E)
Time: 12:28:44
(UTC+00:00)

Cosmos 2322 Rocket - Pass Details

Date: 03 March 2021
Orbit: 832 x 852 km, 71.0° (Epoch: 10 April)

Event Time Altitude Azimuth Distance (km) Brightness Sun altitude
Rises 19:07:21 0° 210° (SSW) 3,366 5.6 -14.2°
Reaches altitude 10° 19:09:46 10° 211° (SSW) 2,436 4.9 -14.6°
Maximum altitude 19:15:22 84° 300° (WNW) 846 2.2 -15.5°
Drops below altitude 10° 19:21:01 10° 29° (NNE) 2,459 4.4 -16.4°
Sets 19:23:29 0° 30° (NNE) 3,400 5.2 -16.7°
